Location: Del Amo
(33.8464°N, 118.2104°W)
Time: 15:19:44
(UTC+00:00)

Tiros 1 despin weight - Pass Details

Date: 21 September 2024
Orbit: 573 x 615 km, 48.2° (Epoch: 04 October)

Event Time Altitude Azimuth Distance (km) Brightness Sun altitude
Exits shadow 11:07:11 13° 4° (N) 1,787 ? -31.7°
Drops below altitude 10° 11:08:47 10° 25° (NNE) 1,978 ? -31.4°
Sets 11:12:19 0° 52° (NE) 2,886 ? -30.8°
